Tracking 32523 objects as of 12-Dec-2025
HD Live streaming from Space Station
objects crossing your sky now

NOAA 17 DEB

Track NOAA 17 DEB now!
10-day predictions


NORAD ID: 48752
Int'l Code: 2002-032CN
Perigee: 468.3 km
Apogee: 476.1 km
Inclination: 98.7 °
Period: 93.9 minutes
Semi major axis: 6843 km
RCS: Unknown
Launch date: June 24, 2002
Source: United States (US)
Launch site: AIR FORCE WESTERN TEST RANGE (AFWTR)

Note: This is SATELLITE DEBRIS
Your satellite tracking list
Your tracking list is empty




NASA's NSSDC Master Catalog

Two Line Element Set (TLE):
1 48752U 02032CM  25345.57631058  .00385238  00000-0  11273-1 0  9991
2 48752  98.6881  28.8599 0005661  98.8250 261.3630 15.33614003250104
Source of the keplerian elements: AFSPC